Regional Weather Roundup
Issued by NWS

Home | Current Version | Previous Version | Graphics & Text | Print | Product List | Glossary On
Versions: 1 2 3 4 5 6 7 8 9 10 11 12 13 14 15 16 17 18 19 20 21 22 23 24 25 26 27 28 29 30 31 32 33 34 35 36 37 38 39 40 41 42 43 44 45 46 47 48 49 50
000
ASUS43 KFSD 172202
RWRSD

WEATHER ROUNDUP FOR SOUTH DAKOTA
NATIONAL WEATHER SERVICE SIOUX FALLS SD
400 PM CST TUE JAN 17 2017

NOTE: "FAIR" INDICATES FEW OR NO CLOUDS BELOW 12,000 FEET WITH NO
SIGNIFICANT WEATHER AND/OR OBSTRUCTIONS TO VISIBILITY.


SDZ001>005-009-010-012>017-172300-
NORTHWEST AND NORTH CENTRAL SOUTH DAKOTA

CITY           SKY/WX    TMP DP  RH WIND       PRES   REMARKS
BUFFALO          N/A     34  23  64 W14       29.76S WCI  25
FAITH            N/A     23  17  78 S10       29.84S WCI  12
MOBRIDGE       CLOUDY    20  12  71 SE14      29.84F WCI   7
$$

SDZ012>016-024>037-041>051-057-063-072>074-172300-
SOUTHWEST AND SOUTH CENTRAL SOUTH DAKOTA

CITY           SKY/WX    TMP DP  RH WIND       PRES   REMARKS
RAPID CTY ARPT CLOUDY    33  22  63 CALM      29.87S
PIERRE         CLOUDY    25  17  72 CALM      29.91S
CUSTER         CLOUDY    47  16  29 W8        29.88R
ELLSWORTH AFB  SUNNY     41  18  38 S5        29.86S
PHILIP         CLOUDY    33  22  63 W13       29.89F WCI  24
PINE RIDGE     CLOUDY    34  20  56 SW8       29.92S WCI  27
SPEARFISH      FAIR      52  18  25 W10       29.87R
WINNER         FAIR      53  20  27 S10       29.92S
$$

SDZ004>011-016>023-039-040-172300-
NORTHEAST SOUTH DAKOTA

CITY           SKY/WX    TMP DP  RH WIND       PRES   REMARKS
ABERDEEN       CLOUDY    20  13  74 S9        29.94S WCI   9
WATERTOWN      CLOUDY    20  16  84 S5        29.94S WCI  13
BROOKINGS      CLOUDY    28  21  75 SW5       29.97S WCI  23
SISSETON         N/A     33  24  69 SW6       29.91F WCI  28
$$

SDZ017-020-022-023-036>040-048>070-172300-
SOUTHEAST SOUTH DAKOTA

CITY           SKY/WX    TMP DP  RH WIND       PRES   REMARKS
SIOUX FALLS    MOSUNNY   33  24  69 SW5       30.01R WCI  29
HURON          CLOUDY    30  21  69 SE8       29.95F WCI  22
CHAMBERLAIN    SUNNY     41  29  61 E5        29.93F
MITCHELL       SUNNY     38  26  62 S7        29.99S
YANKTON        SUNNY     36  28  75 CALM      30.02S
$$

ABBREVIATIONS USED IN REMARKS
   TC - TEMPERATURE IN CELSIUS
  WCI - WIND CHILL INDEX
   HX - HEAT INDEX
  VSB - VISIBILITY




USA.gov is the U.S. government's official web portal to all federal, state and local government web resources and services.